Location: Ch�ze
(42.9000°N, 0.0333°W)
Time: 23:57:46
(UTC+00:00)

SMAP - Pass Details

Date: 24 January 2021
Orbit: 681 x 683 km, 98.1° (Epoch: 24 February)

Event Time Altitude Azimuth Distance (km) Brightness Sun altitude
Rises 17:22:42 0° 166° (SSE) 3,030 6.5 -4.2°
Reaches altitude 10° 17:24:55 10° 166° (SSE) 2,119 5.7 -4.6°
Maximum altitude 17:29:34 89° 254° (WSW) 689 3.1 -5.4°
Drops below altitude 10° 17:34:15 10° 347° (NNW) 2,135 5.6 -6.2°
Sets 17:36:30 0° 347° (NNW) 3,055 6.3 -6.5°
